Tracking 25723 objects as of 26-Jun-2022
HD Live streaming from Space Station
objects crossing your sky now

DMSP 5D-2 F13 DEB

Track DMSP 5D-2 F13 DEB now!
10-day predictions


NORAD ID: 40471
Int'l Code: 1995-015BP
Perigee: 832.9 km
Apogee: 872.3 km
Inclination: 98.9 °
Period: 101.8 minutes
Semi major axis: 7223 km
RCS: Unknown
Launch date: March 24, 1995
Source: United States (US)
Launch site: AIR FORCE WESTERN TEST RANGE (AFWTR)

Note: This is SATELLITE DEBRIS
aabbcc
Your satellite tracking list
Your tracking list is empty




NASA's NSSDC Master Catalog

Two Line Element Set (TLE):
1 40471U 95015BP  22177.51711731  .00001507  00000-0  81296-3 0  9993
2 40471  98.9023 173.7393 0027257 154.2701 205.9834 14.14065816376053
Source of the keplerian elements: AFSPC